HUSKYSAT-1

Last updated on Mon Mar 01 2021 11:36:23 GMT+0000 (Greenwich Mean Time)

1 45119U 19071J 21059.78816517 .00003252 00000-0 10532-3 0 9994 2 45119 51.6417 203.4884 0011199 256.6274 103.3461 15.34990151 60471
UTC large
Height (km)
Speed (km/s)
/
Latitude / Longitude
Inclination (degrees)
Orbital Period (minutes)
Azimuth
Elevation
Range (km)
Doppler Factor

Next 0 passes for location: London (51.5072 / 0.1276)

Sorry there are no passes over London.